Time,TemperatureF,DewpointF,PressureIn,WindDirection,WindDirectionDegrees,WindSpeedMPH,WindSpeedGustMPH,Humidity,HourlyPrecipIn,Conditions,Clouds,dailyrainin,SoftwareType,DateUTC
2014-09-18 00:04:00,78.3,75.1,29.86,NW,323,0.0,2.0,90,0.00,,---,0.00,VWS V14.01,2014-09-18 04:04:00,
2014-09-18 00:09:00,78.3,75.1,29.86,NW,323,1.0,2.0,90,0.00,,---,0.00,VWS V14.01,2014-09-18 04:09:00,
2014-09-18 00:14:00,78.3,75.1,29.86,NW,322,1.0,2.0,90,0.00,,---,0.00,VWS V14.01,2014-09-18 04:14:00,
2014-09-18 00:19:00,78.3,75.1,29.86,NW,321,0.0,2.0,90,0.00,,---,0.00,VWS V14.01,2014-09-18 04:19:00,
2014-09-18 00:24:00,78.3,75.1,29.86,NW,321,1.0,2.0,90,0.00,,---,0.00,VWS V14.01,2014-09-18 04:24:00,
2014-09-18 00:29:00,78.3,75.1,29.86,NW,321,1.0,3.0,90,0.00,,---,0.00,VWS V14.01,2014-09-18 04:29:00,
2014-09-18 00:34:00,78.3,75.1,29.86,NW,321,1.0,3.0,90,0.00,,---,0.00,VWS V14.01,2014-09-18 04:34:00,
2014-09-18 00:39:00,78.3,75.1,29.86,NW,321,0.0,0.0,90,0.00,,---,0.00,VWS V14.01,2014-09-18 04:39:00,
2014-09-18 00:44:00,78.1,74.9,29.86,NW,321,0.0,2.0,90,0.00,,---,0.00,VWS V14.01,2014-09-18 04:44:00,
2014-09-18 00:49:00,78.1,74.9,29.86,NW,321,0.0,2.0,90,0.00,,---,0.00,VWS V14.01,2014-09-18 04:49:00,
2014-09-18 00:54:00,78.1,74.9,29.86,NW,321,1.0,2.0,90,0.00,,---,0.00,VWS V14.01,2014-09-18 04:54:00,
2014-09-18 00:59:00,78.1,75.3,29.86,NW,321,0.0,2.0,91,0.00,,---,0.00,VWS V14.01,2014-09-18 04:59:00,
2014-09-18 01:05:00,78.1,75.3,29.86,NW,321,0.0,2.0,91,0.00,,---,0.00,VWS V14.01,2014-09-18 05:05:00,
2014-09-18 01:11:00,78.1,75.3,29.85,NW,321,0.0,0.0,91,0.00,,---,0.00,VWS V14.01,2014-09-18 05:11:00,
2014-09-18 01:16:00,78.1,75.6,29.85,NW,321,1.0,2.0,92,0.00,,---,0.00,VWS V14.01,2014-09-18 05:16:00,
2014-09-18 01:21:00,78.1,75.6,29.85,NW,321,0.0,2.0,92,0.00,,---,0.00,VWS V14.01,2014-09-18 05:21:00,
2014-09-18 01:27:00,78.1,75.6,29.85,NW,321,0.0,2.0,92,0.00,,---,0.00,VWS V14.01,2014-09-18 05:27:00,
2014-09-18 01:32:00,78.1,75.6,29.85,NW,321,0.0,2.0,92,0.00,,---,0.00,VWS V14.01,2014-09-18 05:32:00,
2014-09-18 01:37:00,78.1,75.9,29.85,NW,321,0.0,2.0,93,0.00,,---,0.00,VWS V14.01,2014-09-18 05:37:00,
2014-09-18 01:42:00,78.1,75.9,29.84,NW,321,1.0,1.0,93,0.00,,---,0.00,VWS V14.01,2014-09-18 05:42:00,
2014-09-18 01:47:00,78.1,75.9,29.84,NW,321,0.0,2.0,93,0.00,,---,0.00,VWS V14.01,2014-09-18 05:47:00,
2014-09-18 01:52:00,78.1,75.9,29.84,NW,321,0.0,3.0,93,0.00,,---,0.00,VWS V14.01,2014-09-18 05:52:00,
2014-09-18 01:57:00,78.1,75.9,29.83,NW,321,0.0,3.0,93,0.00,,---,0.00,VWS V14.01,2014-09-18 05:57:00,
2014-09-18 02:02:00,78.1,75.9,29.83,NW,321,0.0,3.0,93,0.00,,---,0.00,VWS V14.01,2014-09-18 06:02:00,
2014-09-18 02:08:00,78.1,75.9,29.83,NW,321,0.0,3.0,93,0.00,,---,0.00,VWS V14.01,2014-09-18 06:08:00,
2014-09-18 02:13:00,77.9,75.7,29.83,NW,320,2.0,2.0,93,0.00,,---,0.00,VWS V14.01,2014-09-18 06:13:00,
2014-09-18 02:18:00,77.9,75.7,29.83,NW,320,2.0,3.0,93,0.00,,---,0.00,VWS V14.01,2014-09-18 06:18:00,
2014-09-18 02:23:00,77.9,75.4,29.82,NW,320,1.0,4.0,92,0.00,,---,0.00,VWS V14.01,2014-09-18 06:23:00,
2014-09-18 02:28:00,77.7,75.2,29.82,NW,319,0.0,4.0,92,0.00,,---,0.00,VWS V14.01,2014-09-18 06:28:00,
2014-09-18 02:33:00,77.7,75.2,29.82,NW,319,2.0,4.0,92,0.00,,---,0.00,VWS V14.01,2014-09-18 06:33:00,
2014-09-18 02:38:00,77.7,75.2,29.82,NW,319,0.0,4.0,92,0.00,,---,0.00,VWS V14.01,2014-09-18 06:38:00,
2014-09-18 02:43:00,77.7,75.2,29.82,NW,319,1.0,4.0,92,0.00,,---,0.00,VWS V14.01,2014-09-18 06:43:00,
2014-09-18 02:48:00,77.6,75.1,29.82,NW,319,0.0,4.0,92,0.00,,---,0.00,VWS V14.01,2014-09-18 06:48:00,
2014-09-18 02:53:00,77.6,75.4,29.82,NW,319,0.0,4.0,93,0.00,,---,0.00,VWS V14.01,2014-09-18 06:53:00,
2014-09-18 02:58:00,77.6,75.4,29.82,NW,319,0.0,4.0,93,0.00,,---,0.00,VWS V14.01,2014-09-18 06:58:00,
2014-09-18 03:03:00,77.4,75.2,29.82,NW,319,0.0,4.0,93,0.00,,---,0.00,VWS V14.01,2014-09-18 07:03:00,
2014-09-18 03:08:00,77.4,75.2,29.82,NW,319,0.0,4.0,93,0.00,,---,0.00,VWS V14.01,2014-09-18 07:08:00,
2014-09-18 03:14:00,77.2,74.7,29.82,NW,319,1.0,2.0,92,0.00,,---,0.00,VWS V14.01,2014-09-18 07:14:00,
2014-09-18 03:19:00,77.2,74.7,29.82,NW,319,1.0,2.0,92,0.00,,---,0.00,VWS V14.01,2014-09-18 07:19:00,
2014-09-18 03:24:00,77.2,74.7,29.81,NW,319,0.0,2.0,92,0.00,,---,0.00,VWS V14.01,2014-09-18 07:24:00,
2014-09-18 03:29:00,77.2,75.0,29.81,NW,319,0.0,2.0,93,0.00,,---,0.00,VWS V14.01,2014-09-18 07:29:00,
2014-09-18 03:34:00,77.2,75.0,29.81,NW,319,0.0,2.0,93,0.00,,---,0.00,VWS V14.01,2014-09-18 07:34:00,
2014-09-18 03:39:00,77.2,75.0,29.81,NW,319,0.0,2.0,93,0.00,,---,0.00,VWS V14.01,2014-09-18 07:39:00,
2014-09-18 03:44:00,77.2,75.0,29.81,NW,319,0.0,2.0,93,0.00,,---,0.00,VWS V14.01,2014-09-18 07:44:00,
2014-09-18 03:49:00,77.0,75.1,29.81,NW,319,0.0,2.0,94,0.00,,---,0.00,VWS V14.01,2014-09-18 07:49:00,
2014-09-18 03:53:00,77.0,75.1,29.81,NW,319,0.0,2.0,94,0.00,,---,0.00,VWS V14.01,2014-09-18 07:53:00,
2014-09-18 03:58:00,77.0,75.1,29.81,NW,319,0.0,2.0,94,0.00,,---,0.00,VWS V14.01,2014-09-18 07:58:00,
2014-09-18 04:03:00,77.0,75.1,29.81,NW,319,0.0,2.0,94,0.00,,---,0.00,VWS V14.01,2014-09-18 08:03:00,
2014-09-18 04:08:00,77.0,75.5,29.80,NW,319,0.0,2.0,95,0.00,,---,0.00,VWS V14.01,2014-09-18 08:08:00,
2014-09-18 04:13:00,77.0,75.5,29.80,NW,319,0.0,0.0,95,0.00,,---,0.00,VWS V14.01,2014-09-18 08:13:00,
2014-09-18 04:18:00,76.8,75.3,29.80,NW,319,0.0,0.0,95,0.00,,---,0.00,VWS V14.01,2014-09-18 08:18:00,
2014-09-18 04:23:00,76.8,75.3,29.80,NW,319,0.0,0.0,95,0.00,,---,0.00,VWS V14.01,2014-09-18 08:23:00,
2014-09-18 04:28:00,76.8,75.6,29.80,NW,319,0.0,0.0,96,0.00,,---,0.00,VWS V14.01,2014-09-18 08:28:00,
2014-09-18 04:33:00,76.8,75.6,29.80,NW,319,0.0,0.0,96,0.00,,---,0.00,VWS V14.01,2014-09-18 08:33:00,
2014-09-18 04:38:00,76.8,75.6,29.80,NW,319,0.0,0.0,96,0.00,,---,0.00,VWS V14.01,2014-09-18 08:38:00,
2014-09-18 04:43:00,76.8,75.9,29.80,NW,319,0.0,0.0,97,0.00,,---,0.00,VWS V14.01,2014-09-18 08:43:00,
2014-09-18 04:48:00,76.7,75.8,29.80,NW,319,0.0,0.0,97,0.00,,---,0.00,VWS V14.01,2014-09-18 08:48:00,
2014-09-18 04:53:00,76.7,75.8,29.80,NW,319,0.0,0.0,97,0.00,,---,0.00,VWS V14.01,2014-09-18 08:53:00,
2014-09-18 04:58:00,76.5,75.6,29.80,NW,319,0.0,0.0,97,0.00,,---,0.00,VWS V14.01,2014-09-18 08:58:00,
2014-09-18 05:04:00,76.5,75.6,29.80,NW,319,0.0,0.0,97,0.00,,---,0.00,VWS V14.01,2014-09-18 09:04:00,
2014-09-18 05:09:00,76.5,75.6,29.80,NW,319,0.0,0.0,97,0.00,,---,0.00,VWS V14.01,2014-09-18 09:09:00,
2014-09-18 05:14:00,76.3,75.4,29.80,NW,319,0.0,0.0,97,0.00,,---,0.00,VWS V14.01,2014-09-18 09:14:00,
2014-09-18 05:19:00,76.3,75.7,29.80,NW,319,0.0,0.0,98,0.00,,---,0.00,VWS V14.01,2014-09-18 09:19:00,
2014-09-18 05:24:00,76.1,75.5,29.81,NW,319,0.0,0.0,98,0.00,,---,0.00,VWS V14.01,2014-09-18 09:24:00,
2014-09-18 05:29:00,76.1,75.5,29.81,NW,319,0.0,0.0,98,0.00,,---,0.00,VWS V14.01,2014-09-18 09:29:00,
2014-09-18 05:34:00,76.0,75.4,29.81,NW,319,0.0,0.0,98,0.00,,---,0.00,VWS V14.01,2014-09-18 09:34:00,
2014-09-18 05:39:00,76.0,75.4,29.81,NW,319,0.0,0.0,98,0.00,,---,0.00,VWS V14.01,2014-09-18 09:39:00,
2014-09-18 05:44:00,76.0,75.4,29.81,NW,319,0.0,0.0,98,0.00,,---,0.00,VWS V14.01,2014-09-18 09:44:00,
2014-09-18 05:49:00,75.8,75.2,29.81,NW,319,0.0,0.0,98,0.00,,---,0.00,VWS V14.01,2014-09-18 09:49:00,
2014-09-18 05:54:00,75.8,75.5,29.82,NW,319,0.0,0.0,99,0.00,,---,0.00,VWS V14.01,2014-09-18 09:54:00,
2014-09-18 05:59:00,75.6,75.3,29.82,NW,319,0.0,0.0,99,0.00,,---,0.00,VWS V14.01,2014-09-18 09:59:00,
2014-09-18 06:04:00,75.6,75.3,29.82,NW,319,0.0,0.0,99,0.00,,---,0.00,VWS V14.01,2014-09-18 10:04:00,
2014-09-18 06:09:00,75.4,75.1,29.82,NW,319,0.0,0.0,99,0.00,,---,0.00,VWS V14.01,2014-09-18 10:09:00,
2014-09-18 06:14:00,75.4,75.1,29.82,NW,319,0.0,0.0,99,0.00,,---,0.00,VWS V14.01,2014-09-18 10:14:00,
2014-09-18 06:19:00,75.4,75.4,29.82,NW,319,0.0,0.0,100,0.00,,---,0.00,VWS V14.01,2014-09-18 10:19:00,
2014-09-18 06:24:00,75.4,75.4,29.82,NW,319,0.0,0.0,100,0.00,,---,0.00,VWS V14.01,2014-09-18 10:24:00,
2014-09-18 06:28:00,75.3,75.3,29.82,NW,319,0.0,0.0,100,0.00,,---,0.00,VWS V14.01,2014-09-18 10:28:00,
2014-09-18 06:33:00,75.3,75.3,29.82,NW,319,0.0,0.0,100,0.00,,---,0.00,VWS V14.01,2014-09-18 10:33:00,
2014-09-18 06:38:00,75.3,75.3,29.82,NW,319,0.0,0.0,100,0.00,,---,0.00,VWS V14.01,2014-09-18 10:38:00,
2014-09-18 06:43:00,75.3,75.3,29.82,NW,319,0.0,0.0,100,0.00,,---,0.00,VWS V14.01,2014-09-18 10:43:00,
2014-09-18 06:48:00,75.1,75.1,29.82,NW,319,0.0,0.0,100,0.00,,---,0.00,VWS V14.01,2014-09-18 10:48:00,
2014-09-18 06:54:00,75.1,75.1,29.83,NW,319,0.0,0.0,100,0.00,,---,0.00,VWS V14.01,2014-09-18 10:54:00,
2014-09-18 06:59:00,75.1,75.1,29.83,NW,319,0.0,0.0,100,0.00,,---,0.00,VWS V14.01,2014-09-18 10:59:00,
2014-09-18 07:04:00,75.1,75.1,29.83,NW,319,0.0,0.0,100,0.00,,---,0.00,VWS V14.01,2014-09-18 11:04:00,
2014-09-18 07:09:00,75.1,75.1,29.83,NW,319,0.0,0.0,100,0.00,,---,0.00,VWS V14.01,2014-09-18 11:09:00,
2014-09-18 07:14:00,75.3,75.3,29.83,NW,319,0.0,0.0,100,0.00,,---,0.00,VWS V14.01,2014-09-18 11:14:00,
2014-09-18 07:19:00,75.1,75.1,29.83,NW,319,0.0,0.0,100,0.00,,---,0.00,VWS V14.01,2014-09-18 11:19:00,
2014-09-18 07:24:00,75.1,75.1,29.84,NW,319,0.0,0.0,100,0.00,,---,0.00,VWS V14.01,2014-09-18 11:24:00,
2014-09-18 07:29:00,75.1,75.1,29.84,NW,319,0.0,0.0,100,0.00,,---,0.00,VWS V14.01,2014-09-18 11:29:00,
2014-09-18 07:34:00,75.1,75.1,29.84,NW,319,0.0,0.0,100,0.00,,---,0.00,VWS V14.01,2014-09-18 11:34:00,
2014-09-18 07:39:00,75.1,75.1,29.84,NW,319,0.0,0.0,100,0.00,,---,0.00,VWS V14.01,2014-09-18 11:39:00,
2014-09-18 07:44:00,75.1,75.1,29.84,NW,319,0.0,0.0,100,0.00,,---,0.00,VWS V14.01,2014-09-18 11:44:00,
2014-09-18 07:50:00,75.3,75.3,29.84,NW,319,0.0,0.0,100,0.00,,---,0.00,VWS V14.01,2014-09-18 11:50:00,
2014-09-18 07:55:00,75.4,75.4,29.85,NW,319,0.0,0.0,100,0.00,,---,0.00,VWS V14.01,2014-09-18 11:55:00,
2014-09-18 08:00:00,75.4,75.4,29.85,NW,319,0.0,0.0,100,0.00,,---,0.00,VWS V14.01,2014-09-18 12:00:00,
2014-09-18 08:05:00,75.6,75.6,29.85,NW,319,0.0,0.0,100,0.00,,---,0.00,VWS V14.01,2014-09-18 12:05:00,
2014-09-18 08:10:00,75.8,75.8,29.84,NW,319,0.0,0.0,100,0.00,,---,0.00,VWS V14.01,2014-09-18 12:10:00,
2014-09-18 08:15:00,76.0,76.0,29.84,NW,319,0.0,0.0,100,0.00,,---,0.00,VWS V14.01,2014-09-18 12:15:00,
2014-09-18 08:20:00,76.1,76.1,29.84,NW,319,0.0,0.0,100,0.00,,---,0.00,VWS V14.01,2014-09-18 12:20:00,
2014-09-18 08:25:00,76.3,76.3,29.85,NW,319,0.0,0.0,100,0.00,,---,0.00,VWS V14.01,2014-09-18 12:25:00,
2014-09-18 08:30:00,76.5,76.5,29.85,NW,319,0.0,0.0,100,0.00,,---,0.00,VWS V14.01,2014-09-18 12:30:00,
2014-09-18 08:35:00,76.8,76.8,29.85,NW,319,0.0,0.0,100,0.00,,---,0.00,VWS V14.01,2014-09-18 12:35:00,
2014-09-18 08:40:00,77.2,77.2,29.85,NW,319,0.0,0.0,100,0.00,,---,0.00,VWS V14.01,2014-09-18 12:40:00,
2014-09-18 08:45:00,77.4,77.4,29.85,NW,319,0.0,0.0,100,0.00,,---,0.00,VWS V14.01,2014-09-18 12:45:00,
2014-09-18 08:50:00,77.6,77.6,29.85,NW,319,0.0,0.0,100,0.00,,---,0.00,VWS V14.01,2014-09-18 12:50:00,
2014-09-18 08:55:00,78.1,78.1,29.86,NW,319,0.0,2.0,100,0.00,,---,0.00,VWS V14.01,2014-09-18 12:55:00,
2014-09-18 09:00:00,78.8,78.5,29.86,NW,319,0.0,2.0,99,0.00,,---,0.00,VWS V14.01,2014-09-18 13:00:00,
2014-09-18 09:05:00,79.4,78.8,29.86,NW,319,0.0,2.0,98,0.00,,---,0.00,VWS V14.01,2014-09-18 13:05:00,
2014-09-18 09:10:00,79.8,78.6,29.86,NW,319,0.0,0.0,96,0.00,,---,0.00,VWS V14.01,2014-09-18 13:10:00,
2014-09-18 09:15:00,80.5,78.3,29.86,NW,319,0.0,2.0,93,0.00,,---,0.00,VWS V14.01,2014-09-18 13:15:00,
2014-09-18 09:20:00,81.2,78.3,29.86,NW,319,0.0,2.0,91,0.00,,---,0.00,VWS V14.01,2014-09-18 13:20:00,
2014-09-18 09:21:00,81.2,78.3,29.86,NW,319,1.0,2.0,91,0.00,,---,0.00,VWS V14.01,2014-09-18 13:21:00,
2014-09-18 09:26:00,81.8,77.2,29.86,NW,319,2.0,4.0,86,0.00,,---,0.00,VWS V14.01,2014-09-18 13:26:00,
2014-09-18 09:31:00,82.0,77.1,29.86,NW,319,1.0,4.0,85,0.00,,---,0.00,VWS V14.01,2014-09-18 13:31:00,
2014-09-18 09:36:00,82.0,76.7,29.86,NW,319,1.0,4.0,84,0.00,,---,0.00,VWS V14.01,2014-09-18 13:36:00,
2014-09-18 09:42:00,82.0,76.7,29.86,NW,318,2.0,4.0,84,0.00,,---,0.00,VWS V14.01,2014-09-18 13:42:00,
2014-09-18 09:47:00,82.0,76.7,29.86,NW,317,1.0,4.0,84,0.00,,---,0.00,VWS V14.01,2014-09-18 13:47:00,
2014-09-18 09:52:00,82.4,77.1,29.86,NW,318,1.0,4.0,84,0.00,,---,0.00,VWS V14.01,2014-09-18 13:52:00,
2014-09-18 09:57:00,82.6,76.9,29.87,NW,316,2.0,4.0,83,0.00,,---,0.00,VWS V14.01,2014-09-18 13:57:00,
2014-09-18 10:02:00,82.8,76.4,29.87,NW,316,2.0,4.0,81,0.00,,---,0.00,VWS V14.01,2014-09-18 14:02:00,
2014-09-18 10:07:00,83.0,76.6,29.87,NW,315,1.0,6.0,81,0.00,,---,0.00,VWS V14.01,2014-09-18 14:07:00,
2014-09-18 10:12:00,83.4,76.6,29.88,NW,315,2.0,3.0,80,0.00,,---,0.00,VWS V14.01,2014-09-18 14:12:00,
2014-09-18 10:17:00,83.4,77.0,29.88,NW,315,0.0,4.0,81,0.00,,---,0.00,VWS V14.01,2014-09-18 14:17:00,
2014-09-18 10:22:00,83.6,76.8,29.88,NW,315,0.0,4.0,80,0.00,,---,0.00,VWS V14.01,2014-09-18 14:22:00,
2014-09-18 10:27:00,84.1,76.9,29.87,NW,314,0.0,4.0,79,0.00,,---,0.00,VWS V14.01,2014-09-18 14:27:00,
2014-09-18 10:32:00,84.7,77.1,29.87,WNW,301,3.0,6.0,78,0.00,,---,0.00,VWS V14.01,2014-09-18 14:32:00,
2014-09-18 10:37:00,84.9,76.1,29.87,WNW,300,2.0,6.0,75,0.00,,---,0.00,VWS V14.01,2014-09-18 14:37:00,
2014-09-18 10:42:00,85.1,76.3,29.87,WNW,300,2.0,5.0,75,0.00,,---,0.00,VWS V14.01,2014-09-18 14:42:00,
2014-09-18 10:47:00,85.3,76.5,29.87,WNW,300,3.0,5.0,75,0.00,,---,0.00,VWS V14.01,2014-09-18 14:47:00,
2014-09-18 10:52:00,85.5,76.7,29.87,WNW,298,0.0,5.0,75,0.00,,---,0.00,VWS V14.01,2014-09-18 14:52:00,
2014-09-18 10:57:00,85.9,77.1,29.87,WNW,298,5.0,5.0,75,0.00,,---,0.00,VWS V14.01,2014-09-18 14:57:00,
2014-09-18 11:02:00,85.7,75.2,29.87,WNW,297,2.0,5.0,71,0.00,,---,0.00,VWS V14.01,2014-09-18 15:02:00,
2014-09-18 11:07:00,85.9,75.0,29.87,WNW,296,0.0,5.0,70,0.00,,---,0.00,VWS V14.01,2014-09-18 15:07:00,
2014-09-18 11:12:00,86.1,75.2,29.86,WNW,296,4.0,4.0,70,0.00,,---,0.00,VWS V14.01,2014-09-18 15:12:00,
2014-09-18 11:17:00,86.5,74.2,29.86,WNW,296,2.0,4.0,67,0.00,,---,0.00,VWS V14.01,2014-09-18 15:17:00,
2014-09-18 11:22:00,87.0,75.2,29.86,WNW,295,0.0,5.0,68,0.00,,---,0.00,VWS V14.01,2014-09-18 15:22:00,
2014-09-18 11:28:00,87.6,75.7,29.86,WNW,295,0.0,5.0,68,0.00,,---,0.00,VWS V14.01,2014-09-18 15:28:00,
2014-09-18 11:33:00,88.2,75.9,29.86,WNW,295,0.0,5.0,67,0.00,,---,0.00,VWS V14.01,2014-09-18 15:33:00,
2014-09-18 11:38:00,88.8,76.0,29.86,WNW,294,1.0,5.0,66,0.00,,---,0.00,VWS V14.01,2014-09-18 15:38:00,
2014-09-18 11:43:00,89.5,77.1,29.86,WNW,294,0.0,3.0,67,0.00,,---,0.00,VWS V14.01,2014-09-18 15:43:00,
2014-09-18 11:48:00,89.9,76.1,29.86,WNW,294,4.0,4.0,64,0.00,,---,0.00,VWS V14.01,2014-09-18 15:48:00,
2014-09-18 11:53:00,89.9,76.1,29.86,WNW,293,2.0,7.0,64,0.00,,---,0.00,VWS V14.01,2014-09-18 15:53:00,
2014-09-18 11:58:00,88.8,76.0,29.86,WNW,291,3.0,7.0,66,0.00,,---,0.00,VWS V14.01,2014-09-18 15:58:00,
2014-09-18 12:03:00,87.4,77.3,29.86,WNW,288,0.0,7.0,72,0.00,,---,0.00,VWS V14.01,2014-09-18 16:03:00,
2014-09-18 12:08:00,87.2,78.3,29.86,WNW,288,3.0,7.0,75,0.00,,---,0.00,VWS V14.01,2014-09-18 16:08:00,
2014-09-18 12:13:00,86.3,77.4,29.86,WNW,288,3.0,4.0,75,0.00,,---,0.00,VWS V14.01,2014-09-18 16:13:00,
2014-09-18 12:19:00,85.9,77.1,29.86,WNW,286,2.0,8.0,75,0.00,,---,0.00,VWS V14.01,2014-09-18 16:19:00,
2014-09-18 12:24:00,85.9,77.1,29.86,WNW,285,2.0,8.0,75,0.00,,---,0.00,VWS V14.01,2014-09-18 16:24:00,
2014-09-18 12:29:00,86.1,76.8,29.86,WNW,286,4.0,8.0,74,0.00,,---,0.00,VWS V14.01,2014-09-18 16:29:00,
2014-09-18 12:34:00,86.1,76.4,29.86,WNW,286,0.0,8.0,73,0.00,,---,0.00,VWS V14.01,2014-09-18 16:34:00,
2014-09-18 12:39:00,86.7,76.6,29.85,WNW,286,0.0,8.0,72,0.00,,---,0.00,VWS V14.01,2014-09-18 16:39:00,
2014-09-18 12:44:00,87.0,75.6,29.85,WNW,286,0.0,3.0,69,0.00,,---,0.00,VWS V14.01,2014-09-18 16:44:00,
2014-09-18 12:49:00,87.2,75.8,29.85,WNW,286,1.0,3.0,69,0.00,,---,0.00,VWS V14.01,2014-09-18 16:49:00,
2014-09-18 12:54:00,87.2,76.2,29.85,West,280,6.0,7.0,70,0.00,,---,0.00,VWS V14.01,2014-09-18 16:54:00,
2014-09-18 12:59:00,86.3,76.2,29.85,West,281,1.0,9.0,72,0.00,,---,0.00,VWS V14.01,2014-09-18 16:59:00,
2014-09-18 13:04:00,86.1,76.8,29.85,West,279,3.0,9.0,74,0.00,,---,0.00,VWS V14.01,2014-09-18 17:04:00,
2014-09-18 13:09:00,85.7,76.5,29.85,West,277,4.0,4.0,74,0.00,,---,0.00,VWS V14.01,2014-09-18 17:09:00,
2014-09-18 13:14:00,85.1,76.3,29.85,West,277,1.0,5.0,75,0.00,,---,0.00,VWS V14.01,2014-09-18 17:14:00,
2014-09-18 13:19:00,84.7,77.8,29.85,West,277,4.0,6.0,80,0.01,,---,0.01,VWS V14.01,2014-09-18 17:19:00,
2014-09-18 13:24:00,84.0,78.3,29.84,West,277,2.0,6.0,83,0.01,,---,0.01,VWS V14.01,2014-09-18 17:24:00,
2014-09-18 13:29:00,83.2,77.9,29.84,West,277,2.0,6.0,84,0.02,,---,0.02,VWS V14.01,2014-09-18 17:29:00,
2014-09-18 13:34:00,82.8,77.5,29.84,West,277,3.0,6.0,84,0.02,,---,0.02,VWS V14.01,2014-09-18 17:34:00,
2014-09-18 13:39:00,82.4,78.1,29.84,West,277,0.0,0.0,87,0.03,,---,0.03,VWS V14.01,2014-09-18 17:39:00,
2014-09-18 13:43:00,82.4,77.8,29.84,West,277,0.0,0.0,86,0.03,,---,0.03,VWS V14.01,2014-09-18 17:43:00,
2014-09-18 13:49:00,82.4,78.1,29.84,West,277,0.0,2.0,87,0.04,,---,0.04,VWS V14.01,2014-09-18 17:49:00,
2014-09-18 13:54:00,83.0,79.1,29.83,West,277,0.0,2.0,88,0.04,,---,0.04,VWS V14.01,2014-09-18 17:54:00,